WA5KWK Weather Reports


Display with metric or nautical units.
time (UTC)temp
F
wind
direction
speed
MPH
gust
MPH
rain 1hr
in
rain 24hr
in
rain mn
in
humidity
%
barometer
mb
20260504130505 46 296 0.0 1.0 0.00 0.00 0.00 86 1012.6
20260504110504 47 296 0.0 0.0 0.00 0.00 0.00 82 1012.5
20260504100504 46 296 0.0 1.0 0.00 0.00 0.00 84 1012.4
20260504082004 47 271 3.0 6.0 0.00 0.00 0.00 90 1012.8
20260504081504 47 253 4.0 7.0 0.00 0.00 0.00 90 1012.9
20260504081004 48 240 2.0 3.0 0.00 0.00 0.00 90 1012.8
20260504050505 51 271 1.0 3.0 0.00 0.00 0.00 87 1013.1
20260504045505 51 271 1.0 2.0 0.00 0.00 0.00 86 1012.9
20260504044504 51 271 1.0 3.0 0.00 0.00 0.00 86 1012.7
20260504044004 51 271 1.0 3.0 0.00 0.00 0.00 86 1012.6
20260504043504 51 270 1.0 3.0 0.00 0.00 0.00 86 1012.5
20260504043005 51 270 1.0 2.0 0.00 0.00 0.00 86 1012.5
20260504042504 51 270 1.0 3.0 0.00 0.00 0.00 85 1012.6
20260504042004 51 265 4.0 8.0 0.00 0.00 0.00 85 1012.6
20260504041504 51 357 1.0 5.0 0.00 0.00 0.00 85 1012.6
20260504041004 51 278 2.0 3.0 0.00 0.00 0.00 85 1012.5
20260504035504 52 283 2.0 7.0 0.00 0.00 0.00 84 1012.5
20260504035004 52 288 2.0 6.0 0.00 0.00 0.00 84 1012.3
20260504034504 53 279 1.0 3.0 0.00 0.00 0.00 85 1012.3
20260504034004 53 306 1.0 3.0 0.00 0.00 0.00 85 1012.3
20260504033504 53 308 1.0 3.0 0.00 0.00 0.00 85 1012.2
20260504033005 53 294 0.0 3.0 0.00 0.00 0.00 85 1012.0
20260504032504 53 279 1.0 3.0 0.00 0.00 0.00 85 1011.8
20260504032004 53 279 2.0 3.0 0.00 0.00 0.00 85 1011.8
20260504031504 53 279 1.0 3.0 0.00 0.00 0.00 85 1011.7
20260504031004 53 9 0.0 2.0 0.00 0.00 0.00 85 1011.6
20260504030504 53 9 1.0 3.0 0.00 0.00 0.00 85 1011.4
20260504030004 53 303 1.0 3.0 0.00 0.00 0.00 85 1011.7
20260504025504 53 344 2.0 3.0 0.00 0.00 0.00 85 1011.7
20260504025005 53 336 2.0 3.0 0.00 0.00 0.00 85 1011.6
20260504024504 53 242 1.0 3.0 0.00 0.00 0.00 85 1011.6
20260504024003 53 243 2.0 3.0 0.00 0.00 0.00 85 1011.4
20260504023504 53 266 1.0 3.0 0.00 0.00 0.00 85 1011.4
20260504023004 53 266 1.0 3.0 0.00 0.00 0.00 85 1011.4
20260504022503 53 266 3.0 7.0 0.00 0.00 0.00 85 1011.6
20260504022004 53 261 2.0 3.0 0.00 0.00 0.00 85 1011.4
20260504021504 53 259 2.0 6.0 0.00 0.00 0.00 85 1011.3
20260504021004 53 263 2.0 7.0 0.00 0.00 0.00 85 1011.4
20260504020504 53 263 2.0 6.0 0.00 0.00 0.00 85 1011.2
20260504020004 54 257 2.0 3.0 0.00 0.00 0.00 84 1011.2
20260504015504 54 285 2.0 3.0 0.00 0.00 0.00 84 1011.2
20260504015004 54 261 2.0 9.0 0.00 0.00 0.00 84 1011.1
20260504014004 54 261 3.0 6.0 0.00 0.00 0.00 83 1011.0
20260504013503 54 290 1.0 3.0 0.00 0.00 0.00 83 1011.0
20260504013004 54 290 1.0 7.0 0.00 0.00 0.00 83 1010.9
20260504012004 55 263 4.0 9.0 0.00 0.00 0.00 82 1011.0
20260504011505 55 264 3.0 7.0 0.00 0.00 0.00 81 1010.9
20260504011005 55 254 2.0 8.0 0.00 0.00 0.00 81 1010.8
20260504010505 56 270 3.0 9.0 0.00 0.00 0.00 80 1010.8
20260504005505 56 254 4.0 9.0 0.00 0.00 0.00 80 1010.9
20260504005005 56 184 1.0 5.0 0.00 0.00 0.00 81 1011.1
20260504004505 56 241 4.0 7.0 0.00 0.00 0.00 80 1011.0
20260504004005 56 289 3.0 7.0 0.00 0.00 0.00 79 1011.0
20260504003504 56 276 3.0 7.0 0.00 0.00 0.00 79 1010.9
20260504003005 57 259 3.0 9.0 0.00 0.00 0.00 79 1010.9
20260504002005 57 244 3.0 9.0 0.00 0.00 0.00 79 1010.8
20260504001504 57 265 3.0 10.0 0.00 0.00 0.00 79 1010.8
20260504001005 57 269 6.0 10.0 0.00 0.00 0.00 78 1010.8
20260504000005 58 262 4.0 12.0 0.00 0.00 0.00 76 1010.7
20260503235505 59 288 5.0 10.0 0.00 0.00 0.00 76 1010.7
20260503235005 59 1 3.0 8.0 0.00 0.00 0.00 77 1010.7
20260503234504 59 252 3.0 7.0 0.00 0.00 0.00 75 1010.7
20260503234005 60 217 5.0 8.0 0.00 0.00 0.00 73 1010.9
20260503233504 61 208 5.0 9.0 0.00 0.00 0.00 75 1010.8
20260503233005 60 223 3.0 8.0 0.00 0.00 0.00 75 1010.8
20260503232505 60 221 3.0 5.0 0.00 0.00 0.00 76 1010.6
20260503232005 60 189 3.0 8.0 0.00 0.00 0.00 75 1010.7
20260503231504 59 194 3.0 9.0 0.00 0.00 0.00 77 1010.5
20260503231005 59 304 2.0 5.0 0.00 0.00 0.00 76 1010.6
20260503230004 59 191 6.0 9.0 0.00 0.00 0.00 76 1010.8
20260503225505 59 192 2.0 5.0 0.00 0.00 0.00 77 1010.8
20260503225005 59 184 3.0 9.0 0.00 0.00 0.00 76 1010.9
20260503224505 59 200 3.0 6.0 0.00 0.00 0.00 76 1010.8
20260503223005 60 223 3.0 7.0 0.00 0.00 0.00 74 1011.2
20260503222505 60 217 2.0 5.0 0.00 0.00 0.00 73 1011.2
20260503222005 60 201 2.0 3.0 0.00 0.00 0.00 76 1011.2
20260503221505 59 189 3.0 7.0 0.00 0.00 0.00 76 1011.4
20260503221005 59 214 3.0 6.0 0.00 0.00 0.00 77 1011.4
20260503220004 58 187 2.0 8.0 0.00 0.00 0.00 77 1011.5
20260503215504 58 243 2.0 8.0 0.00 0.00 0.00 79 1011.5
20260503215005 58 251 1.0 3.0 0.00 0.00 0.00 77 1011.3
20260503214505 58 249 4.0 8.0 0.00 0.00 0.00 77 1011.2
20260503213504 58 285 1.0 3.0 0.00 0.00 0.00 79 1011.5
20260503213005 57 213 2.0 3.0 0.00 0.00 0.00 79 1011.5
20260503212505 57 253 4.0 6.0 0.00 0.00 0.00 79 1011.5
20260503212005 58 194 5.0 8.0 0.00 0.00 0.00 78 1011.4
20260503211504 57 213 2.0 3.0 0.00 0.00 0.00 80 1011.4
20260503211005 57 218 3.0 7.0 0.00 0.00 0.00 78 1011.4
20260503210505 58 230 2.0 5.0 0.00 0.00 0.00 78 1011.4
20260503210006 58 198 3.0 7.0 0.00 0.00 0.00 79 1011.5
20260503205505 58 211 2.0 6.0 0.00 0.00 0.00 80 1011.4
20260503205005 58 243 1.0 5.0 0.00 0.00 0.00 78 1011.5
20260503204505 57 219 2.0 7.0 0.00 0.00 0.00 80 1011.3
20260503204005 57 285 3.0 7.0 0.00 0.00 0.00 79 1011.5
20260503203504 57 274 4.0 8.0 0.00 0.00 0.00 79 1011.4
20260503203005 57 254 2.0 6.0 0.00 0.00 0.00 79 1011.3
20260503202505 57 190 5.0 8.0 0.00 0.00 0.00 79 1011.4
20260503202004 57 262 3.0 8.0 0.00 0.00 0.00 78 1011.4
20260503201505 58 218 3.0 8.0 0.00 0.00 0.00 77 1011.3
20260503201005 58 181 5.0 9.0 0.00 0.00 0.00 77 1011.3
20260503200505 59 232 5.0 9.0 0.00 0.00 0.00 77 1011.3
20260503200005 59 196 5.0 8.0 0.00 0.00 0.00 76 1011.7
20260503195505 59 192 4.0 7.0 0.00 0.00 0.00 77 1011.5
20260503194505 58 281 5.0 9.0 0.00 0.00 0.00 77 1011.7
20260503193505 58 202 5.0 12.0 0.00 0.00 0.00 78 1011.6
20260503193005 58 201 4.0 9.0 0.00 0.00 0.00 78 1011.4
20260503192504 58 194 4.0 10.0 0.00 0.00 0.00 80 1011.3
20260503192005 57 211 4.0 9.0 0.00 0.00 0.00 81 1011.3
20260503191504 57 230 4.0 9.0 0.00 0.00 0.00 79 1011.2
20260503191005 57 270 4.0 8.0 0.00 0.00 0.00 79 1011.2
20260503190505 57 217 3.0 7.0 0.00 0.00 0.00 79 1011.2
20260503185505 56 239 3.0 8.0 0.00 0.00 0.00 82 1011.5
20260503185005 55 219 5.0 10.0 0.00 0.00 0.00 82 1011.4
20260503184504 55 217 5.0 8.0 0.00 0.00 0.00 81 1011.4
20260503184004 55 198 3.0 7.0 0.00 0.00 0.00 81 1011.6
20260503183504 56 195 2.0 8.0 0.00 0.00 0.00 82 1011.4
20260503183005 56 190 4.0 8.0 0.00 0.00 0.00 80 1011.6
20260503182505 56 201 5.0 7.0 0.00 0.00 0.00 80 1011.4
20260503182006 56 213 4.0 6.0 0.00 0.00 0.00 80 1011.4
20260503181506 56 238 3.0 5.0 0.00 0.00 0.00 80 1011.5
20260503181005 56 195 2.0 5.0 0.00 0.00 0.00 79 1011.4
20260503180504 57 195 3.0 5.0 0.00 0.00 0.00 79 1011.4
20260503180005 56 194 2.0 3.0 0.00 0.00 0.00 79 1011.5
20260503175505 56 218 2.0 3.0 0.00 0.00 0.00 79 1011.3
20260503175004 57 213 3.0 5.0 0.00 0.00 0.00 79 1011.3
20260503174504 57 213 3.0 5.0 0.00 0.00 0.00 79 1011.3
20260503174004 57 197 2.0 5.0 0.00 0.00 0.00 79 1011.4
20260503173504 56 174 1.0 5.0 0.00 0.00 0.00 82 1011.4
20260503173004 54 177 1.0 3.0 0.00 0.00 0.00 84 1011.4
20260503172504 53 178 2.0 3.0 0.00 0.00 0.00 85 1011.2
20260503172005 53 177 1.0 3.0 0.00 0.00 0.00 85 1011.4
20260503171504 52 177 1.0 3.0 0.00 0.00 0.00 86 1011.4
20260503171005 52 177 1.0 3.0 0.00 0.00 0.00 86 1011.3
20260503170504 52 177 1.0 3.0 0.00 0.00 0.00 86 1011.1
20260503151005 50 175 2.0 6.0 0.00 0.00 0.00 85 1010.3